William P Hobby Airport
KHOU : now visible

Airfield :











YOU CAN JOIN US ON...

 
LOGIN :

Register | Disclaimer

   EN    FR    IT 

 









Legend :    VFR   Marginal VFR   IFR   Intensive IFR   Very Intensive IFR
Visi :
Ceiling :
>= 8 km
>= 3000ft
5 to 8 km
1000 to 3000 ft
1500m to 5 km
500 to 1000 ft
800 to 1500m
200 to 500 ft
< 800m
< 200 ft
Symbols :   Thunderstorms  Fog  Heavy snow  Heavy precipitations  Wind > 20 kt






- Airport Elevation : 46 ft
- IATA code : HOU


KHOU - William P Hobby

CURRENT METAR :
  • 201653Z 11005KT 10SM SCT030 29/21 A3002 RMK AO2 SLP170 T02940206

EXPIRED METARs :
  • 201553Z 10006KT 10SM SCT020 28/21 A3004 RMK AO2 SLP175 T02780206
  • 201453Z 13008KT 10SM SCT015 27/22 A3004 RMK AO2 SLP178 T02670217 53013

TAF KHOU
Valid from the 20 at 15:00 until the 21 at 12:00 UTC


201454Z 2015/2112 VRB04KT P6SM FEW015
FM201600 12007KT P6SM FEW020 SCT035
FM210900 VRB03KT P6SM BKN015
KZHU FIR / North America



MET'MAP, your aeronautical weather chart ! - Copyright ORBIFLY December 2007 - Disclaimer

ORBIFLY MET'MAP TEAM :

Programming & Development : Alexandra Zaïnal
Concept & original design : Baudouin d'Aumeries
Assistance for programming : Marc-Olivier Méhu
Technical & hardware support : Manuel Goepfert

Contact : metmap@orbifly.com




SOURCES & CREDITS :

   NOAA       Earth
Advisory